Voltar ao catálogo

THOR ABLESTAR DEB

AtivoLEO
NORAD 655·DEBRIS·🇺🇸 United States

Lançado Jun 29, 1961 de Cape Canaveral Space Force Station

Loading…

Próximas Passagens (próximas 24 horas)

TLE

AtualizadoSource: Space-Track

Época: Sep 14, 2026, 11:32 UTC

1 00655U 61015HG  26257.48065807 -.00000004  00000-0  11670-3 0  9992
2 00655  67.2558  54.5770 0369171 259.4403 129.1023 13.09591468 98622

Acompanhe THOR ABLESTAR DEB em tempo real com AllMySat

Download on the App Store